Big Rapids, MI

3:36 PM EDT on October 18, 2019 (GMT -0400)
Roben-Hood

Weather History for KRQB - August, 2019

Change the Weather History Date:

Tuesday, August 20, 2019

  Actual Average Record
Temperature  
Mean Temperature 68 °F -  
Max Temperature 81 °F 77 °F 88 °F (1971)
Min Temperature 56 °F 52 °F 36 °F (1977)
Cooling Degree Days 4    
Growing Degree Days 18 (Base 50)    
Moisture  
Dew Point 63 °F    
Average Humidity 82    
Maximum Humidity 97    
Minimum Humidity 52    
Precipitation  
Precipitation 0.00 in - - ()
Sea Level Pressure  
Sea Level Pressure 30.01 in    
Wind  
Wind Speed 2 mph (WSW)    
Max Wind Speed 10 mph    
Max Gust Speed 18 mph    
Visibility 10 miles    
Events      
Averages and records for this station are not official NWS values.
T = Trace of Precipitation, MM = Missing Value Source: NWS Daily Summary

Daily Weather History Graph

Daily Weather History Graph

Search for Another Location

Airport or City:

Astronomy

Aug. 20, 2019 Rise Set
Actual Time 6:51 AM EDT 8:38 PM EDT
Civil Twilight 6:21 AM EDT 9:08 PM EDT
Nautical Twilight 5:43 AM EDT 9:45 PM EDT
Astronomical Twilight 5:03 AM EDT 10:26 PM EDT
Moon 11:17 PM EDT (8/20) 11:37 AM EDT (8/20)
Length of Visible Light 14h 47m
Length of Day
13h 46m
Waning Gibbous, 78% of the Moon is Illuminated
Aug 20
Waning Gibbous
Aug 23
Last Quarter
Aug 30
New
Sep 5
First Quarter
Sep 14
Full

Hourly Weather History & Observations

Time (EDT) Temp. Heat Index Dew Point Humidity Pressure Visibility Wind Dir Wind Speed Gust Speed Precip Events Conditions
12:15 AM 60.8 °F - 59.0 °F 94% 30.06 in 10.0 mi Calm Calm - N/A   Clear
12:16 AM 60.8 °F - 58.8 °F 93% 30.06 in 10.0 mi Calm Calm - N/A   Clear
12:38 AM 60.4 °F - 58.8 °F 94% 30.06 in 10.0 mi Calm Calm - N/A   Clear
12:55 AM 58.8 °F - 57.2 °F 94% 30.06 in 10.0 mi Calm Calm - N/A   Clear
12:56 AM 58.8 °F - 57.2 °F 94% 30.06 in 10.0 mi Calm Calm - N/A   Clear
1:15 AM 58.8 °F - 57.2 °F 94% 30.06 in 10.0 mi Calm Calm - N/A   Clear
1:35 AM 58.6 °F - 57.6 °F 96% 30.06 in 10.0 mi Calm Calm - N/A   Clear
1:58 AM 58.8 °F - 57.6 °F 96% 30.06 in 10.0 mi Calm Calm - N/A   Clear
2:15 AM 58.1 °F - 56.8 °F 96% 30.06 in 10.0 mi Calm Calm - N/A   Clear
2:16 AM 58.1 °F - 56.8 °F 96% 30.06 in 10.0 mi Calm Calm - N/A   Clear
2:35 AM 57.9 °F - 56.5 °F 95% 30.06 in 10.0 mi Calm Calm - N/A   Clear
2:59 AM 57.6 °F - 56.3 °F 96% 30.06 in 7.0 mi Calm Calm - N/A   Clear
3:17 AM 56.8 °F - 55.6 °F 96% 30.06 in 10.0 mi Calm Calm - N/A   Clear
3:35 AM 56.7 °F - 55.6 °F 96% 30.07 in 10.0 mi Calm Calm - N/A   Clear
3:36 AM 56.7 °F - 55.6 °F 96% 30.07 in 10.0 mi Calm Calm - N/A   Clear
3:55 AM 56.1 °F - 55.0 °F 96% 30.07 in 10.0 mi Calm Calm - N/A   Scattered Clouds
3:56 AM 56.3 °F - 55.2 °F 96% 30.07 in 10.0 mi Calm Calm - N/A   Scattered Clouds
4:15 AM 57.0 °F - 55.9 °F 96% 30.07 in 10.0 mi Calm Calm - N/A   Scattered Clouds
4:20 AM 56.3 °F - 55.0 °F 96% 30.08 in 10.0 mi Calm Calm - N/A   Scattered Clouds
4:37 AM 57.2 °F - 56.3 °F 97% 30.08 in 10.0 mi Calm Calm - N/A   Mostly Cloudy
4:56 AM 57.2 °F - 56.1 °F 96% 30.09 in 10.0 mi Calm Calm - N/A   Scattered Clouds
5:15 AM 57.4 °F - 56.3 °F 96% 30.09 in 10.0 mi Calm Calm - N/A   Mostly Cloudy
5:35 AM 57.7 °F - 56.7 °F 96% 30.08 in 10.0 mi Calm Calm - N/A   Overcast
5:58 AM 59.0 °F - 57.7 °F 96% 30.08 in 10.0 mi Calm Calm - N/A   Overcast
6:16 AM 59.0 °F - 57.9 °F 96% 30.07 in 10.0 mi Calm Calm - N/A   Overcast
6:35 AM 58.5 °F - 57.2 °F 96% 30.06 in 10.0 mi Calm Calm - N/A   Mostly Cloudy
6:36 AM 58.3 °F - 57.2 °F 96% 30.06 in 10.0 mi Calm Calm - N/A   Mostly Cloudy
6:55 AM 58.1 °F - 57.2 °F 97% 30.05 in 10.0 mi Calm Calm - N/A   Scattered Clouds
7:19 AM 58.1 °F - 57.2 °F 97% 30.03 in 10.0 mi Calm Calm - N/A   Clear
7:36 AM 58.3 °F - 57.4 °F 97% 30.02 in 10.0 mi Calm Calm - N/A   Clear
7:55 AM 59.4 °F - 58.3 °F 96% 30.02 in 10.0 mi Calm Calm - N/A   Clear
7:56 AM 59.2 °F - 58.1 °F 96% 30.02 in 10.0 mi SW 3.5 mph - N/A   Clear
8:15 AM 60.8 °F - 59.5 °F 96% 30.05 in 10.0 mi West 3.5 mph - N/A   Clear
8:39 AM 62.2 °F - 60.3 °F 93% 30.05 in 10.0 mi Calm Calm - N/A   Scattered Clouds
8:57 AM 62.4 °F - 60.1 °F 92% 30.05 in 10.0 mi Calm Calm - N/A   Mostly Cloudy
9:15 AM 63.3 °F - 61.2 °F 93% 30.04 in 10.0 mi Calm Calm - N/A   Overcast
9:16 AM 63.5 °F - 61.2 °F 92% 30.04 in 10.0 mi Calm Calm - N/A   Overcast
9:35 AM 64.2 °F - 61.2 °F 90% 30.04 in 10.0 mi Calm Calm - N/A   Overcast
9:58 AM 65.7 °F - 61.9 °F 88% 30.04 in 10.0 mi Calm Calm - N/A   Overcast
10:16 AM 67.3 °F - 63.0 °F 86% 30.04 in 10.0 mi South 4.6 mph - N/A   Overcast
10:36 AM 69.3 °F - 63.1 °F 81% 30.04 in 10.0 mi South 5.8 mph - N/A   Overcast
10:55 AM 71.8 °F - 60.8 °F 68% 30.05 in 10.0 mi SE 9.2 mph - N/A   Overcast
10:56 AM 72.0 °F - 60.4 °F 67% 30.05 in 10.0 mi ESE 9.2 mph - N/A   Overcast
11:15 AM 72.7 °F - 58.6 °F 61% 30.04 in 10.0 mi ESE 8.1 mph - N/A   Overcast
11:20 AM 72.7 °F - 58.8 °F 62% 30.05 in 10.0 mi SE 8.1 mph - N/A   Overcast
11:38 AM 73.6 °F - 57.7 °F 58% 30.04 in 10.0 mi ESE 9.2 mph - N/A   Overcast
11:56 AM 73.9 °F - 57.4 °F 56% 30.03 in 10.0 mi East 3.5 mph - N/A   Overcast
12:15 PM 74.8 °F - 56.7 °F 53% 30.03 in 10.0 mi East 3.5 mph - N/A   Overcast
12:16 PM 74.8 °F - 56.1 °F 52% 30.04 in 10.0 mi Calm Calm - N/A   Mostly Cloudy
12:35 PM 76.1 °F - 57.9 °F 53% 30.03 in 10.0 mi ESE 4.6 mph - N/A   Mostly Cloudy
12:36 PM 76.1 °F - 57.7 °F 53% 30.03 in 10.0 mi ESE 4.6 mph - N/A   Mostly Cloudy
12:59 PM 77.4 °F - 60.6 °F 56% 30.04 in 10.0 mi SE 8.1 mph - N/A   Scattered Clouds
1:16 PM 77.9 °F - 62.2 °F 58% 30.02 in 10.0 mi ESE 8.1 mph - N/A   Clear
1:35 PM 77.2 °F - 62.8 °F 61% 30.01 in 10.0 mi ESE 8.1 mph - N/A   Mostly Cloudy
1:36 PM 77.4 °F - 63.0 °F 61% 30.01 in 10.0 mi ESE 10.4 mph - N/A   Mostly Cloudy
1:55 PM 78.1 °F - 64.6 °F 63% 29.99 in 10.0 mi SE 6.9 mph - N/A   Mostly Cloudy
2:19 PM 78.6 °F - 66.2 °F 66% 29.97 in 10.0 mi South 6.9 mph - N/A   Clear
2:37 PM 78.8 °F - 66.7 °F 66% 29.98 in 10.0 mi SW 5.8 mph - N/A   Clear
2:55 PM 79.5 °F - 67.1 °F 66% 29.99 in 10.0 mi Calm Calm - N/A   Scattered Clouds
2:56 PM 79.5 °F - 67.3 °F 66% 29.99 in 10.0 mi Calm Calm - N/A   Scattered Clouds
3:15 PM 79.3 °F - 68.4 °F 69% 30.00 in 10.0 mi Calm Calm - N/A   Overcast
3:39 PM 80.2 °F 83.2 °F 69.4 °F 69% 29.98 in 10.0 mi Calm Calm - N/A   Mostly Cloudy
3:57 PM 80.8 °F 84.2 °F 70.0 °F 70% 29.98 in 10.0 mi WSW 8.1 mph - N/A   Mostly Cloudy
4:15 PM 81.7 °F 85.4 °F 70.3 °F 68% 29.97 in 10.0 mi WNW 3.5 mph - N/A   Scattered Clouds
4:16 PM 81.7 °F 85.4 °F 70.3 °F 68% 29.96 in 10.0 mi West 3.5 mph - N/A   Scattered Clouds
4:35 PM 81.5 °F 85.5 °F 70.7 °F 70% 29.96 in 10.0 mi West 8.1 mph - N/A   Scattered Clouds
4:55 PM 81.3 °F 85.0 °F 70.3 °F 69% 29.96 in 10.0 mi WNW 9.2 mph - N/A   Clear
4:59 PM 81.3 °F 85.0 °F 70.2 °F 69% 29.95 in 10.0 mi WNW 6.9 mph 18.4 mph N/A   Clear
5:16 PM 81.1 °F 84.9 °F 70.5 °F 70% 29.95 in 10.0 mi West 5.8 mph - N/A   Scattered Clouds
5:35 PM 80.1 °F 83.4 °F 70.7 °F 73% 29.94 in 10.0 mi West 4.6 mph - N/A   Mostly Cloudy
5:36 PM 80.2 °F 83.7 °F 70.7 °F 73% 29.94 in 10.0 mi West 3.5 mph - N/A   Mostly Cloudy
5:55 PM 79.9 °F - 70.9 °F 74% 29.94 in 10.0 mi WSW 4.6 mph - N/A   Mostly Cloudy
6:15 PM 79.9 °F - 70.3 °F 73% 29.93 in 10.0 mi West 8.1 mph - N/A   Scattered Clouds
6:20 PM 79.9 °F - 69.8 °F 71% 29.92 in 10.0 mi West 6.9 mph - N/A   Scattered Clouds
6:38 PM 78.8 °F - 70.3 °F 75% 29.92 in 10.0 mi WSW 6.9 mph - N/A   Clear
6:56 PM 79.0 °F - 70.9 °F 76% 29.92 in 10.0 mi WNW 4.6 mph - N/A   Scattered Clouds
7:15 PM 78.8 °F - 70.5 °F 76% 29.92 in 10.0 mi NW 5.8 mph - N/A   Scattered Clouds
7:16 PM 78.8 °F - 70.5 °F 76% 29.92 in 10.0 mi NW 4.6 mph - N/A   Scattered Clouds
7:35 PM 77.9 °F - 70.9 °F 79% 29.92 in 10.0 mi WSW 3.5 mph - N/A   Clear
7:57 PM 78.1 °F - 70.7 °F 78% 29.91 in 10.0 mi Calm Calm - N/A   Scattered Clouds
8:15 PM 77.5 °F - 70.9 °F 80% 29.92 in 10.0 mi Calm Calm - N/A   Scattered Clouds
8:35 PM 76.3 °F - 70.7 °F 83% 29.92 in 10.0 mi NNW 4.6 mph - N/A   Scattered Clouds
8:55 PM 75.4 °F - 70.2 °F 84% 29.92 in 10.0 mi Calm Calm - N/A   Clear
8:56 PM 75.2 °F - 70.2 °F 84% 29.92 in 10.0 mi Calm Calm - N/A   Clear
9:17 PM 74.3 °F - 70.7 °F 88% 29.93 in 10.0 mi NW 3.5 mph - N/A   Clear
9:35 PM 73.2 °F - 70.2 °F 90% 29.94 in 10.0 mi WNW 3.5 mph - N/A   Clear
9:55 PM 72.9 °F - 70.2 °F 91% 29.94 in 10.0 mi NW 3.5 mph - N/A   Scattered Clouds
10:15 PM 72.7 °F - 70.2 °F 92% 29.94 in 7.0 mi WNW 3.5 mph - N/A   Clear
10:16 PM 72.7 °F - 70.2 °F 92% 29.94 in 7.0 mi NW 3.5 mph - N/A   Clear
10:39 PM 71.2 °F - 69.3 °F 93% 29.94 in 7.0 mi Calm Calm - N/A   Clear
10:57 PM 69.8 °F - 68.0 °F 94% 29.93 in 4.0 mi Calm Calm - N/A   Clear
11:15 PM 69.4 °F - 68.0 °F 95% 29.93 in 2.0 mi Calm Calm - N/A   Clear
11:16 PM 69.4 °F - 68.0 °F 95% 29.93 in 2.0 mi Calm Calm - N/A   Clear
11:35 PM 69.1 °F - 67.5 °F 95% 29.93 in 5.0 mi Calm Calm - N/A   Scattered Clouds
11:36 PM 68.9 °F - 67.3 °F 95% 29.93 in 4.0 mi Calm Calm - N/A   Scattered Clouds
11:59 PM 68.2 °F - 67.1 °F 96% 29.94 in 4.0 mi Calm Calm - N/A   Clear